Regional Weather Roundup
Issued by NWS Sioux Falls, SD

Home | Current Version | Previous Version | Text Only | Print | Product List | Glossary On
Versions: 1 2 3 4 5 6 7 8 9 10 11 12 13 14 15 16 17 18 19 20 21 22 23 24 25 26 27 28 29 30 31 32 33 34 35 36 37 38 39 40 41 42 43 44 45 46 47 48 49 50
000
ASUS43 KFSD 250010
RWRFSD

WEATHER ROUNDUP FOR SE SOUTH DAKOTA/SW MINNESOTA/NW IOWA
NATIONAL WEATHER SERVICE SIOUX FALLS SD
700 PM CDT THU JUL 24 2014

NOTE: "FAIR" INDICATES FEW OR NO CLOUDS BELOW 12,000 FEET WITH NO
SIGNIFICANT WEATHER AND OR OBSTRUCTIONS TO VISIBILITY.


SDZ038>040-050-052>070-250100-
SOUTHEAST SOUTH DAKOTA

CITY           SKY/WX    TMP DP  RH WIND       PRES   REMARKS
CHAMBERLAIN    SUNNY     87  70  56 SE22G37   29.69F
6HR MIN TEMP:  80; 6HR MAX TEMP:  91;

HURON          SUNNY     76  63  64 SE24G40   29.75F
6HR MIN TEMP:  73; 6HR MAX TEMP:  80;

MADISON        FAIR      68  63  83 S16G24    29.87F
MITCHELL       SUNNY     78  65  63 SE25G40   29.79F
6HR MIN TEMP:  77; 6HR MAX TEMP:  87;

SIOUX FALLS    MOSUNNY   72  61  68 S16G24    29.89F
6HR MIN TEMP:  67; 6HR MAX TEMP:  77; 6HR PCP: TRACE;

WINNER         FAIR      96  69  41 S20G32    29.68S HX 102
YANKTON        PTSUNNY   77  64  65 SE17G29   29.87F
$$

MNZ071-072-080-081-089-090-097-098-250100-
SOUTHWEST MINNESOTA

CITY           SKY/WX    TMP DP  RH WIND       PRES   REMARKS
FAIRMONT       CLOUDY    70  59  68 S15       29.92F
JACKSON        CLOUDY    66  57  72 S13G26    29.92F
LUVERNE        PTSUNNY   68  59  73 S17G26    29.89F
MARSHALL       SUNNY     70  55  60 S21G29    29.87F
6HR MIN TEMP:  64; 6HR MAX TEMP:  77;

MONTEVIDEO     CLOUDY    72  63  73 SW14G21   29.88S
PIPESTONE      MOSUNNY   66  57  72 S16G23    29.89R
REDWOOD FALLS  MOSUNNY   72  62  71 S17G25    29.88F
TRACY          SUNNY     69  59  70 S16G26    29.89F
WINDOM         PTSUNNY   68  59  73 S15G25    29.91F
WORTHINGTON    PTSUNNY   66  59  77 S18G29    29.90F
$$

IAZ001>003-012>014-020>022-031-032-NEZ013-014-SDZ071-250100-
NORTHWEST IOWA

CITY           SKY/WX    TMP DP  RH WIND       PRES   REMARKS
CHEROKEE       PTSUNNY   70  63  78 S22G28    29.92F
DENISON        PTSUNNY   73  64  73 SE14G24   30.00F
ESTHERVILLE    CLOUDY    65  58  78 S21G26    29.91F
LE MARS        MOSUNNY   73  63  68 SE20G32   29.91F
ORANGE CITY    MOSUNNY   73  61  64 S18G24    29.90F
SHELDON        PTSUNNY   66  61  82 SE20      29.90F
SIOUX CITY     PTSUNNY   78  63  59 SE20G30   29.93F
6HR MIN TEMP:  76; 6HR MAX TEMP:  80;

SPENCER        CLOUDY    66  60  81 S17       29.91F
6HR MIN TEMP:  63; 6HR MAX TEMP:  73; 6HR PCP:  0.47;

STORM LAKE     CLOUDY    66  64  94 S23G32    29.94F
$$

ABBREVIATIONS USED IN REMARKS
   TC - TEMPERATURE IN CELSIUS
  WCI - WIND CHILL INDEX
   HX - HEAT INDEX
  VSB - VISIBILITY



USA.gov is the U.S. government's official web portal to all federal, state and local government web resources and services.